Weather observations for the past three days for
Slidell, Slidell Airport
Imperial (Metric)
Date Time (cdt) Wind (mph) Vis. (mi.) Weather Sky Cond. Temperature (ºF) Relative Humidity Wind Chill (°F) Heat Index (°F) Pressure Precipitation (in)
Air Dwpt 6 hour altimeter (in) sea level (mb) 1 hr 3 hr 6 hr
Max. Min.
15 03:53 Calm 10.00 Fair CLR 75 72 90% 74 30.03 1016.8
15 02:53 Calm 10.00 Fair CLR 75.9 73 91% 76 30.03 1016.8
15 01:53 SW 3 10.00 Fair CLR 77 72 85% 78 30.05 1017.7
15 00:53 Calm 10.00 Fair CLR 77 73 93 77 88% 78 30.07 1018.2 0.03
14 23:53 Calm 10.00 Thunderstorm in Vicinity CLR 78.1 72 82% 80 30.1 1019.3
14 22:53 NE 7 10.00 Thunderstorm BKN040 BKN046 OVC060 78.1 73 85% 81 30.12 1020.0
14 21:53 Calm 10.00 Thunderstorm in Vicinity BKN049 BKN060 OVC110 81 77 88% 88 30.08 1018.4 0.03 0.03
14 20:53 SW 8 10.00 Thunderstorm FEW012 FEW110 87.1 75.9 70% 98 30.07 1018.1
14 19:53 Calm 10.00 A Few Clouds FEW080 86 77 75% 97 30.06 1017.7
14 18:53 SW 5 10.00 Fair CLR 93 73 97 90 52% 102 30.04 1017.2
14 17:53 S 6 10.00 Fair CLR 93.9 73 51% 103 30.03 1017.0
14 16:53 S 8 10.00 Fair CLR 96.1 73 48% 106 30.05 1017.4
14 15:53 S 6 10.00 Mostly Cloudy BKN042 BKN055 93.9 79 62% 112 30.06 1017.9
14 14:53 NW 7 10.00 Light Rain FEW060 SCT075 BKN090 91.9 78.1 64% 107 30.07 1018.4
14 13:53 Vrbl 3 10.00 A Few Clouds FEW110 95 77 56% 110 30.1 1019.2
14 12:53 Vrbl 6 10.00 A Few Clouds FEW037 FEW047 93.9 77 95 78.1 58% 108 30.12 1020.0
14 11:53 NW 5 10.00 Fair CLR 93.9 77 58% 108 30.15 1021.0
14 10:53 Calm 10.00 Fair CLR 90 75.9 63% 102 30.16 1021.3
14 09:53 Vrbl 5 10.00 Fair CLR 88 75.9 68% 99 30.15 1021.1
14 08:53 Vrbl 5 10.00 Fair CLR 84.9 77 77% 95 30.16 1021.4
14 07:53 N 5 8.00 Partly Cloudy SCT003 80.1 77 90% 86 30.16 1021.2
14 05:53 Calm 10.00 Fair CLR 78.1 75.9 93% 81 30.12 1020.0
14 04:53 Calm 10.00 Fair CLR 79 75.9 90% 83 30.11 1019.6
14 03:53 N 3 10.00 Fair CLR 80.1 77 90% 86 30.1 1019.2
14 02:53 Calm 10.00 Fair CLR 81 77 88% 88 30.09 1019.0
14 01:53 Calm 10.00 Fair CLR 80.1 77 90% 86 30.11 1019.6
14 00:53 Calm 10.00 Fair CLR 81 78.1 91 81 91% 89 30.13 1020.2
13 23:53 Calm 10.00 Fair CLR 82.9 78.1 85% 93 30.14 1020.6
13 22:53 Calm 10.00 Fair CLR 82 79 90% 92 30.15 1021.0
13 21:53 NE 3 10.00 Fair CLR 82.9 79 88% 94 30.15 1020.8
13 20:53 Calm 10.00 Fair CLR 84.9 79 82% 98 30.14 1020.7
13 19:53 Calm 10.00 Fair CLR 88 77 70% 100 30.13 1020.3
13 18:53 E 3 10.00 Fair CLR 91 78.1 95 82.9 66% 106 30.12 1019.9
13 17:53 Calm 10.00 Fair CLR 89.1 77 68% 102 30.11 1019.6
13 16:53 Vrbl 5 10.00 Fair CLR 93.9 73.9 52% 104 30.11 1019.6
13 15:53 Calm 10.00 Fair CLR 90 73.9 59% 99 30.13 1020.1
13 14:53 N 5 10.00 Thunderstorm BKN044 OVC060 84.9 77 77% 95 30.14 1020.7
13 13:53 N 5 10.00 Thunderstorm in Vicinity SCT041 BKN048 OVC085 93 79 64% 110 30.15 1020.8
13 12:53 NW 5 10.00 Mostly Cloudy BKN040 BKN050 93 77 93.9 79 60% 107 30.17 1021.5
13 11:53 Vrbl 6 10.00 Mostly Cloudy BKN040 91.9 77 62% 106 30.17 1021.7
13 10:53 NW 5 10.00 Fair CLR 91 75 59% 102 30.18 1022.0
13 09:53 Calm 10.00 Fair CLR 90 77 66% 103 30.18 1021.9
13 08:53 Vrbl 5 10.00 Fair CLR 88 77 70% 100 30.18 1021.9
13 07:53 Calm 10.00 Fair CLR 84 77 80% 94 30.16 1021.4
13 06:53 Calm 10.00 Fair CLR 79 75.9 80.1 77 90% 83 30.15 1020.8
13 05:53 Calm 10.00 Fair CLR 77 73.9 90% 78 30.13 1020.3
13 04:53 Calm 10.00 Fair CLR 79 75.9 90% 83 30.12 1019.8
13 03:53 Calm 10.00 Mostly Cloudy BKN043 79 75.9 90% 83 30.11 1019.5
13 02:53 Calm 10.00 Fair CLR 79 75.9 90% 83 30.1 1019.2
13 01:53 Calm 10.00 A Few Clouds FEW030 80.1 77 90% 86 30.1 1019.3
13 00:53 Calm 10.00 Fair CLR 80.1 75.9 90 80.1 87% 85 30.11 1019.4
12 23:53 Calm 10.00 A Few Clouds FEW029 80.1 75.9 87% 85 30.11 1019.6
12 22:53 Calm 10.00 Fair CLR 81 75.9 85% 87 30.11 1019.4
12 21:53 Calm 10.00 Fair CLR 81 75.9 85% 87 30.1 1019.2
12 20:53 Calm 10.00 A Few Clouds FEW095 82 75.9 82% 89 30.09 1019.0
12 19:53 SE 3 10.00 Fair CLR 84.9 75 72% 93 30.08 1018.5
12 18:53 SW 3 10.00 Fair CLR 90 72 91.9 84 56% 97 30.06 1017.7
12 17:53 SW 6 10.00 Fair CLR 91 73 56% 100 30.06 1017.8
12 16:53 Vrbl 5 10.00 Fair CLR 91 73.9 57% 101 30.05 1017.6
12 15:53 S 7 10.00 Fair CLR 91.9 73.9 56% 102 30.05 1017.5
12 14:53 Vrbl 5 10.00 A Few Clouds FEW033 91.9 77 62% 106 30.06 1017.9
12 13:53 Vrbl 6 10.00 Fair CLR 89.1 79 72% 105 30.09 1019.0
12 12:53 Vrbl 3 10.00 Partly Cloudy SCT100 84 78.1 90 77 82% 95 30.11 1019.5
12 11:53 SW 7 10.00 Mostly Cloudy FEW032 SCT044 BKN080 86 75.9 72% 96 30.11 1019.5
12 10:53 Vrbl 5 10.00 Light Rain SCT030 SCT047 BKN060 86 77 75% 97 30.09 1019.0
12 09:53 NW 3 10.00 A Few Clouds FEW026 87.1 75 67% 97 30.09 1019.0
12 08:53 Calm 10.00 Fair CLR 84.9 75.9 75% 94 30.09 1018.8
12 07:53 Calm 10.00 Fair CLR 82 78.1 88% 91 30.07 1018.3
12 06:53 Calm 10.00 Fair CLR 75.9 73.9 78.1 75 94% 75 30.05 1017.6
12 05:53 Calm 10.00 Fair CLR 75.9 73 91% 76 30.04 1017.2
12 04:53 Calm 10.00 Fair CLR 75.9 73 91% 76 30.02 1016.7
Date Time (cdt) Wind (mph) Vis. (mi.) Weather Sky Cond. Air Dwpt Max. Min. Relative Humidity Wind Chill (°F) Heat Index (°F) altimeter (in) sea level (mb) 1 hr 3 hr 6 hr
6 hour
Temperature (ºF) Pressure Precipitation (in)